Zurück zum Katalog

FENGYUN 1C DEB

AktivSSO
NORAD 31451·DEBRIS·🇨🇳 China

Gestartet May 10, 1999 von Taiyuan Satellite Launch Center

Loading…

Nächste Überflüge (nächste 24 Stunden)

TLE

AktuellSource: Space-Track

Epoche: Sep 11, 2026, 14:15 UTC

1 31451U 99025BUP 26254.59421478  .00000318  00000-0  18921-3 0  9994
2 31451  98.7330 295.7686 0032064 154.2405 358.5267 14.13938761998651

Verfolge FENGYUN 1C DEB in Echtzeit mit AllMySat

Download on the App Store